Regional Weather Roundup
Issued by NWS Grand Forks, ND

Home | Current Version | Previous Version | Graphics & Text | Print | Product List | Glossary On
Versions: 1 2 3 4 5 6 7 8 9 10 11 12 13 14 15 16 17 18 19 20 21 22 23 24 25 26 27 28 29 30 31 32 33 34 35 36 37 38 39 40 41 42 43 44 45 46 47 48 49 50
000
ASUS43 KFGF 290710
RWRFGF
PRAIRIE TO PINES  WEATHER ROUNDUP
NATIONAL WEATHER SERVICE EASTERN NORTH DAKOTA/GRAND FORKS ND
200 AM CDT SUN MAY 29 2016

 **SATELLITE DATA USED TO AUGMENT SKY COVER AT AUTOMATED STATIONS**
 *****  WEATHER ACROSS EASTERN NORTH DAKOTA  *****

CITY           SKY/WX    TMP DP  RH WIND       PRES   REMARKS
GRAND FORKS    CLOUDY    60  58  92 NW3       29.86S
GRAND FRKS AFB CLOUDY    60  60 100 NW3       29.87S
GRAND FRKS NWS   N/A     59 N/A N/A NW3         N/A
DEVILS LAKE    MOCLDY    58  57  97 N6        29.92S
FARGO          CLOUDY    61  58  90 W6        29.86S
WAHPETON ARPT  CLOUDY    55  52  88 W6        29.88R
$$

 ***** WEATHER ACROSS CENTRAL AND WESTERN NORTH DAKOTA  *****

CITY           SKY/WX    TMP DP  RH WIND       PRES   REMARKS
BISMARCK       CLEAR     52  52 100 W6        29.96R
MINOT          MOCLDY    57  54  89 W3        29.94R
JAMESTOWN      CLEAR     56  56 100 CALM      29.90R
MINOT AFB      MOCLDY    54  53  98 SW6       29.93R
GARRISON         N/A     52  50  93 NW7       29.95R
WILLISTON      CLEAR     48  47  96 SW5       29.97S
DICKINSON      CLEAR     47  46  97 W7        29.98R
HETTINGER      FOG       43  41  93 CALM      30.03R VSB 1/4
$$

 *****  OTHER AIRPORT OBSERVATIONS IN OUR AREA  *****

CITY           SKY/WX    TMP DP  RH WIND       PRES   REMARKS
WALHALLA       FAIR      57  57 100 N9        29.91R
GRAFTON AIRPOR PTSUNNY   61  61 100 NW6       29.89S
VALLEY CITY AR PTSUNNY   54  54 100 NW3       29.92R
CANDO          NOT AVBL
CAVALIER APRT  CLOUDY    59  57  94 N7        29.89S
GWINNER        FAIR      57  57 100 W5        29.90R
SHEYENNE NWR     N/A     56  56 100 W3        29.95S
ROLLA          FOG       54  54 100 N7        29.95R VSB 1/2
 ***** THE ABOVE OBSERVATIONS ARE NON NWS ARE NOT QUALITY
       CONTROLLED AND MAY MIS-REPORT RAIN FOR SNOW...
$$

  *****  WEATHER ACROSS NORTHERN MINNESOTA  *****

CITY           SKY/WX    TMP DP  RH WIND       PRES   REMARKS
FLAG ISLAND    DRIZZLE   55  54  94 NE10      29.83F
WARROAD        DRIZZLE   55  52  88 NW5       29.85S
ROSEAU         LGT RAIN  55  52  88 NW7       29.85F
HALLOCK        CLOUDY    59  57  94 NE5       29.87S
THF RVR FALLS  CLOUDY    55  54  94 N6        29.87S
BAUDETTE       LGT RAIN  55  53  93 NW5       29.83R
WASKISH        LGT RAIN  55  55 100 NW3       29.82F
CROOKSTON      CLOUDY    57  57 100 CALM      29.87S
GREENBUSH NDAW   N/A     55  55 100 VRB5        N/A
$$
  *****  WEATHER ACROSS CENTRAL AND WEST MINNESOTA  *****

CITY           SKY/WX    TMP DP  RH WIND       PRES   REMARKS
FOSSTON        LGT RAIN  55  54  94 N6        29.86R
BEMIDJI        DRIZZLE   56  56  99 NW6       29.83S
PARK RAPIDS    CLOUDY    59  56  89 NW6       29.83S
ELBOW LAKE     PTSUNNY   58  58  99 NW7       29.87S
WADENA         CLOUDY    57  57 100 NW3       29.84S FOG
DETROIT LAKES  DRIZZLE   59  57  94 NW9       29.87R
MOORHEAD       CLOUDY    61  59  94 NW5       29.87S
FERGUS FALLS   CLOUDY    59  59 100 NW8       29.84S
MORRIS MN      PTCLDY    59  57  94 W5        29.87R
STAPLES        CLOUDY    57  57 100 W3        29.84R
$$
  *****  WEATHER ELSEWHERE ACROSS MINNESOTA  *****

CITY           SKY/WX    TMP DP  RH WIND       PRES   REMARKS
DULUTH         FOG       55  54  96 W5        29.80F VSB 1/2
INTRNTL FALLS  CLOUDY    57  56  96 N6        29.80S FOG
ELY            CLOUDY    59  57  94 CALM      29.80S FOG
CLOQUET        RAIN      55  54  94 CALM      29.81S
WHEATON        MOCLDY    63  61  94 W5        29.90R
BRAINERD       CLOUDY    59  58  96 W6        29.83S
HIBBING        LGT RAIN  58  58 100 CALM      29.80F FOG
ALEXANDRIA     LGT RAIN  59  57  93 W10       29.87R
SAINT CLOUD    CLOUDY    60  58  92 W3        29.83S
MINNEAPOLIS    CLOUDY    63  60  90 W5        29.84S
$$

  *****  WEATHER ACROSS SOUTH DAKOTA  *****

CITY           SKY/WX    TMP DP  RH WIND       PRES   REMARKS
SIOUX FALLS    CLEAR     57  55  93 SW3       29.95R
BROOKINGS      CLOUDY    55  54  96 W5        29.93S
WATERTOWN      CLEAR     58  55  90 W7        29.92R
HURON          CLOUDY    60  56  86 SW7       29.93F
SISSETON         N/A     59  56  89 N5        29.88S
ABERDEEN       CLOUDY    59  56  89 W7        29.92R
MITCHELL       CLOUDY    61  58  90 SW6       29.95S
PIERRE         CLOUDY    53  52  96 N6        29.97R
MOBRIDGE       CLEAR     55  51  86 NW7       29.94S
RAPID CITY     CLEAR     51  45  79 NW8       30.04S
$$

  *****  SOME WEATHER IN NEARBY STATES *****

CITY           SKY/WX    TMP DP  RH WIND       PRES   REMARKS
GLASGOW MT     PTCLDY    51  39  63 SW5       29.98R
GREAT FALLS MT CLEAR     42  32  67 S9        30.03S
CHEYENNE WY    CLEAR     48  39  71 SW9       30.16S
SCOTTSBLUFF NE CLEAR     49  44  83 E6        30.09S
OMAHA NE       CLEAR     59  54  83 NW5       29.99S
DES MOINES IA  PTCLDY    63  56  78 W13       29.93R
DAVENPORT IA   CLEAR     66  59  78 S9        29.94F
CHICAGO IL     CLOUDY    66  60  81 S9        29.94F
EAU CLAIRE WI  CLOUDY    59  58  96 SW3       29.82R
LA CROSSE WI   CLOUDY    64  61  90 S6        29.83S
$$

  *****  SOME NATIONAL WEATHER *****

CITY           SKY/WX    TMP DP  RH WIND       PRES   REMARKS
LA GUARDIA NY  CLEAR     77  58  51 SW8       30.12S
RALEIGH NC     CLOUDY    73  66  78 E3        30.10F
ATLANTA GA     MOCLDY    72  60  66 CALM      30.10F
NEW ORLEANS LA PTCLDY    72  69  90 CALM      30.04F
OKLAHOMA CITY  PTCLDY    71  69  93 SE8       30.03F
ALBUQUERQUE NM CLOUDY    66  23  19 NE3       30.09F
SALT LAKE CITY MOCLDY    63  39  41 SE7       30.06S
LOS ANGELES CA CLOUDY    60  53  77 NW6       29.97S
BOISE ID       CLEAR     56  33  42 SE10      30.02S
SEATTLE WA     CLOUDY    56  53  90 S8        30.05S
$$

*** WEATHER ACROSS MANITOBA...SASKATCHEWAN AND ONTARIO ***
                ***ONTARIO***

CITY           SKY/WX    TMP DP  RH WIND       PRES   REMARKS
GERALDTON      LGT RAIN  54  54 100 NE8       29.82F FOG
THUNDER BAY    CLOUDY    57  57 100 VRB2      29.79F FOG
SIOUX LOOKOUT  DRIZZLE   52  50  93 VRB3      29.85F FOG
TORONTO        LGT RAIN  72  64  78 SW2       30.04F
BIG TROUT LK   CLOUDY    50  45  81 E9        30.07F
PICKLE LAKE    NOT AVBL
DRYDEN         CLOUDY    52  50  93 NE10      29.84S FOG
KENORA         LGT RAIN  52  52 100 N7        29.85S FOG
$$
                *** MANITOBA***

CITY           SKY/WX    TMP DP  RH WIND       PRES   REMARKS
BRANDON        CLOUDY    50  50 100 E6        29.94F
DAUPHIN        CLOUDY    50  50 100 N3        29.95F FOG
ISLAND LAKE    CLOUDY    48  46  93 E6        30.02F
PILOT MOUND      N/A     54  54 100 N6          N/A
THE PAS        CLOUDY    48  43  81 E5        30.00F
THOMPSON       LGT RAIN  46  43  87 E5        30.07F
WINNIPEG       MOCLDY    55  54  94 NE10      29.91S
LYNN LAKE      CLOUDY    45  39  81 S5        30.05S
CHURCHILL      CLOUDY    27  27 100 SE12      30.26R FOG     WCI  16
$$
                ***SASKATCHEWAN***

CITY           SKY/WX    TMP DP  RH WIND       PRES   REMARKS
ESTEVAN        NOT AVBL
KINDERSLEY     PTCLDY    46  43  87 S6        29.88S
LLOYDMINSTER   FOG       43  43 100 W8        29.87S VSB 1/2
PRINCE ALBERT  CLOUDY    50  45  81 E12       29.89F
REGINA         PTCLDY    48  45  87 SW8       29.92R
YORKTON        LGT RAIN  50  48  93 SE10      29.93S FOG
N. BATTLEFORD  FOG       48  48 100 SW3       29.88S VSB 5/8
LA RONGE       CLOUDY    50  45  81 E6        29.95F
SASKATOON      PTCLDY    46  46 100 SW6       29.88S
SWIFT CURRENT  CLEAR     45  43  93 S8        29.91S
$$
NOTE: THESE ARE AUTOMATED STATIONS WITH LIMITED QUALITY CONTROL
      "FAIR" INDICATES FEW OR NO CLOUDS BELOW 12,000 FEET WITH NO
      SIGNIFICANT WEATHER AND/OR OBSTRUCTIONS TO VISIBILITY.
      SKY/WX - SKY CONDITION AND SIGNIFICANT WEATHER.
      TMP - AIR TEMPERATURE.    DP   - DEWPOINT TEMPERATURE.
      RH  - RELATIVE HUMIDITY.  PRES - PRESSURE.
      HX  - HEAT INDEX.         WCI  - WIND CHILL INDEX.
$




USA.gov is the U.S. government's official web portal to all federal, state and local government web resources and services.